[Iaude] MPEC B101: 2019 AZ14 [a=2.78,e=0.52,i=6.7,H=22.3]

mpec at mpcdb1.cfa.harvard.edu mpec at mpcdb1.cfa.harvard.edu
Sun Jan 27 07:07:17 EST 2019


M.P.E.C. 2019-B101                               Issued 2019 Jan. 27, 12:03 UT
 
     The Minor Planet Electronic Circulars contain information on unusual
         minor planets and routine data on comets.  They are published
    on behalf of Division F of the International Astronomical Union by the
          Minor Planet Center, Smithsonian Astrophysical Observatory,
                          Cambridge, MA 02138, U.S.A.

             Prepared using the Tamkin Foundation Computer Network

                              MPC at CFA.HARVARD.EDU
            URL https://www.minorplanetcenter.net/    ISSN 1523-6714


                                   2019 AZ14
 
Observations:
     K19A14Z  C2019 01 04.57753209 20 20.656-06 09 07.44         22.4 GVEB101F51
     K19A14Z  C2019 01 04.58940909 20 21.595-06 09 20.58         22.7 GVEB101F51
     K19A14Z  C2019 01 04.60128409 20 22.530-06 09 33.63         22.2 GVEB101F51
     K19A14Z* C2019 01 13.49548 09 32 10.220-08 33 42.69         22.0 wUEB101F51
     K19A14Z  C2019 01 13.50755 09 32 10.971-08 33 52.77         21.7 wUEB101F51
     K19A14Z  C2019 01 13.53164 09 32 12.504-08 34 12.64         22.5 wUEB101F51
     K19A14Z ^C2019 01 14.43791209 33 17.494-08 46 29.73         22.09GVEB101568
     K19A14Z ^C2019 01 14.43886109 33 17.549-08 46 30.50         22.32GVEB101568
     K19A14Z ^C2019 01 14.43983609 33 17.615-08 46 31.32         21.93GVEB101568
     K19A14Z |C2019 01 20.19597 09 39 32.44 -09 52 22.9          21.6 GUEB101807
     K19A14Z |C2019 01 20.20479 09 39 32.94 -09 52 27.7          21.5 GUEB101807
     K19A14Z |C2019 01 20.21362 09 39 33.39 -09 52 32.9          21.4 GUEB101807
     K19A14Z |C2019 01 26.23717 09 45 04.50 -10 37 40.3          21.7 GUEB101807
     K19A14Z |C2019 01 26.24296 09 45 04.76 -10 37 42.2          21.6 GUEB101807
     K19A14Z |C2019 01 26.24916 09 45 05.02 -10 37 44.2          21.4 GUEB101807
 
Observer details:
568 Mauna Kea.  Observers R. Wainscoat, L. Wells, S. Prunet.  Measurers
    R. Weryk, R. Wainscoat.  3.6-m Canada-France-Hawaii Telescope + CCD.
807 Cerro Tololo Observatory, La Serena.  Observers T. Linder, R. Holmes.
    1.00-m f/10.0 astrograph + CCD.
F51 Pan-STARRS 1, Haleakala.  Observers J. Bulger, K. Chambers, T. Lowe,
    E. Magnier, A. Schultz, M. Willman.  Measurers S. Chastel, M. Huber,
    Y. Ramanjooloo, R. Wainscoat, R. Weryk, K. Chambers, L. Denneau,
    J. Fairlamb, H. Flewelling, C.-C. Lin, E. Magnier.  1.8-m
    Ritchey-Chretien + CCD.
 
Orbital elements:
2019 AZ14
Epoch 2019 Apr. 27.0 TT = JDT 2458600.5                 MPC
M  21.08893              (2000.0)            P               Q
n   0.21231422     Peri.  275.05065     -0.58249342     -0.81063129
a   2.7828086      Node   210.82186     +0.78434947     -0.54124365
e   0.5245154      Incl.    6.70456     +0.21330101     -0.22345519
P   4.64           H   22.3           G   0.15           U   5
Residuals in seconds of arc
190104 F51  0.1+  0.1+    190113 F51  0.0   0.0     190120 807  0.4+  0.3+
190104 F51  0.0   0.0     190114 568  0.0   0.1+    190120 807  0.1+  0.2+
190104 F51  0.2-  0.1-    190114 568  0.1-  0.1+    190126 807  0.2-  0.0
190113 F51  0.1+  0.1-    190114 568  0.0   0.0     190126 807  0.0   0.1-
190113 F51  0.1-  0.1-    190120 807  0.1-  0.1-    190126 807  0.1+  0.1-

Ephemeris:
2019 AZ14                a,e,i = 2.78, 0.52, 7                   q = 1.3232
Date    TT    R. A. (2000) Decl.     Delta      r     Elong.  Phase     V
2018 12 28    09 08 33.1 -03 40 01   0.4672  1.3419   132.0    33.0    22.7
...
2019 01 12    09 30 20.7 -08 12 10   0.4177  1.3246   138.2    29.6    22.3
...
2019 01 20    09 39 20.0 -09 50 36   0.4008  1.3234   142.1    27.2    22.1
...
2019 01 26    09 44 52.4 -10 36 31   0.3924  1.3262   145.4    25.0    22.0
2019 01 27    09 45 41.9 -10 41 38   0.3913  1.3270   145.9    24.6    22.0
2019 01 28    09 46 29.8 -10 46 00   0.3904  1.3279   146.5    24.2    22.0
...
2019 02 03    09 50 45.5 -10 56 16   0.3870  1.3349   150.0    21.6    21.9
...
2019 02 11    09 55 19.5 -10 28 10   0.3889  1.3490   154.8    18.1    21.8
...
2019 02 26    10 02 34.6 -07 51 28   0.4144  1.3890   161.4    13.2    21.9

A. U. Tomatic                (C) Copyright 2019 MPC           M.P.E.C. 2019-B101



More information about the Iaude mailing list